Location: Newark
(23.3970°S, 47.6010°W)
Time: 09:48:44
(UTC+00:00)

Tiros 1 despin weight - Pass Details

Date: 24 February 2020
Orbit: 593 x 642 km, 48.2° (Epoch: 08 April)

Event Time Altitude Azimuth Distance (km) Brightness Sun altitude
Rises 23:10:20 0° 246° (WSW) 2,949 ? -20.0°
Reaches altitude 10° 23:13:20 10° 265° (W) 2,027 ? -20.6°
Maximum altitude 23:16:25 18° 307° (NW) 1,573 ? -21.3°
Drops below altitude 10° 23:19:28 10° 349° (N) 1,996 ? -21.9°
Enters shadow 23:19:39 - 351° (N) 2,041 ? -22.0°
Sets 23:22:25 0° 8° (N) 2,885 - -22.6°
